Miscellaneous Local Product
Issued by NWS North Platte, NE

Home | Current Version | Previous Version | Text Only | Print | Product List | Glossary On
Versions: 1 2 3 4 5 6 7 8 9 10 11 12 13 14 15 16 17 18 19 20 21 22 23 24 25 26 27 28 29 30 31 32 33 34 35 36 37 38 39 40 41 42 43 44 45 46 47 48 49 50
007
AXUS43 KLBF 200410
MISLBF


WESTERN AND NORTH CENTRAL NEBRASKA HOURLY WEATHER ROUNDUP
NATIONAL WEATHER SERVICE NORTH PLATTE NE
1100 PM CDT WED JUL 19 2017

NOTE: "FAIR" INDICATES FEW OR NO CLOUDS BELOW 12,000 FEET WITH NO
SIGNIFICANT WEATHER AND/OR OBSTRUCTIONS TO VISIBILITY.

NOTE: STATIONS NOT REPORTING VARIABLES SUCH AS SKY/WEATHER OR
PRESSURE ARE PROVIDED BY RAWS AND APRS NETWORKS AND ARE NOT UNDER
NATIONAL WEATHER SERVICE QUALITY CONTROL.

...OBSERVATIONS IN AND NEAR THE EASTERN PANHANDLE OF NEBRASKA...

CITY           SKY/WX    TMP DP  RH WIND       PRES   REMARKS
PINE RIDGE     CLOUDY    82  60  47 NE13      30.04R
GORDON         FAIR      76  59  54 E9        30.05R
CHADRON        CLOUDY    82  54  37 NE13      30.02R
ALLIANCE       TSTM      72  67  84 N20G32    30.05S
SIDNEY         LGT RAIN  78  56  46 N15       30.07R
CRESCENT LAKE    N/A     83  65  55 CALM        N/A
$$

...OBSERVATIONS IN NORTHERN NEBRASKA AND FAR SOUTHERN SOUTH DAKOTA...

CITY           SKY/WX    TMP DP  RH WIND       PRES   REMARKS
WINNER         FAIR      78  67  68 W3        29.95R
VALENTINE      CLOUDY    79  65  62 NE6       29.97R
THEDFORD       RAIN      79  68  69 E20G26    29.99S
AINSWORTH      CLOUDY    75  70  83 SE16      29.97S
O`NEILL        DRIZZLE   81  69  67 S26       29.93S
ORD            CLOUDY    77  65  66 NE8       29.96R
BROKEN BOW     CLOUDY    88  61  40 SE13      29.96R
VALENTINE NWR    N/A     76  69  78 E6          N/A
HALSEY           N/A     81  66  59 E9G16       N/A
BUTTE            N/A     76  67  75 W8          N/A
CHAMBERS         N/A     73  71  92 NW3         N/A
EWING            N/A     77  70  78 NW7         N/A
$$

...OBSERVATIONS IN SOUTHWEST NEBRASKA AND FAR NORTHEAST COLORADO...

CITY           SKY/WX    TMP DP  RH WIND       PRES   REMARKS
HOLYOKE        FAIR      81  61  50 S9        30.00R
IMPERIAL       MOCLDY    86  55  34 S14       29.96R
OGALLALA       CLOUDY    86  57  37 W7        29.97R
NORTH PLATTE   CLOUDY    87  57  35 S8        29.94R
MCCOOK         CLEAR     85  59  41 S12       29.96R
LEXINGTON      CLEAR     83  61  47 S10       29.96R
STAPLETON        N/A     84  61  45 CALM        N/A
GOTHENBURG       N/A     87  59  38 SE5         N/A
CALLAWAY         N/A     78  68  70 S10         N/A
$$

...OBSERVATIONS IN CENTRAL LINCOLN COUNTY AREA...

CITY           SKY/WX    TMP DP  RH WIND       PRES   REMARKS
N.P. AIRPORT   CLOUDY    87  57  35 S8        29.94R
N.P. DOWNTOWN    N/A     89  59  36 CALM        N/A
N.P. SOUTHEAST   N/A     87  57  36 S8          N/A
N.P. HILLCREST   N/A     87  57  36 S10         N/A
$$

...SOME OBSERVATIONS FROM AROUND THE REGION...

CITY           SKY/WX    TMP DP  RH WIND       PRES   REMARKS
DENVER         CLOUDY    80  49  33 SW7       30.19R
LIMON          CLOUDY    74  54  49 NW10      30.17R
ASPEN          CLOUDY    60  54  80 SW6       30.41R
LARAMIE        CLOUDY    63  55  75 NW12      30.37R
CASPER         CLOUDY    73  49  42 SW13G30   30.19R
CHEYENNE       CLOUDY    71  53  52 NW12      30.24R
SCOTTSBLUFF    CLOUDY    78  58  49 W21G28    30.09R
GRAND ISLAND   CLEAR     80  71  74 S12       29.95R
OMAHA          CLOUDY    87  75  67 SE10      29.94R HX  96
SIOUX FALLS    CLOUDY    76  74  93 CALM      29.88R
PIERRE         MOCLDY    80  70  71 NE12      29.95R
RAPID CITY     MOCLDY    75  57  53 N9        30.05R
BISMARCK       CLEAR     69  64  84 CALM      29.97R
KANSAS CITY    PTCLDY    82  72  71 S10       30.03R
HILL CITY      CLEAR     86  60  41 S7        29.98R
WICHITA        CLEAR     84  67  56 S10       30.02R
DODGE CITY     CLEAR     83  61  47 S13       30.03R
OKLAHOMA CITY  CLEAR     83  70  64 S10       30.06R
DALLAS         CLEAR     88  70  55 SE9       30.04R HX  93
AMARILLO       CLEAR     80  58  46 S12       30.15R
$$




USA.gov is the U.S. government's official web portal to all federal, state and local government web resources and services.